Regional Weather Roundup
Issued by NWS New Orleans/Baton Rouge, LA

Home | Current Version | Previous Version | Text Only | Print | Product List | Glossary On
Versions: 1 2 3 4 5 6 7 8 9 10 11 12 13 14 15 16 17 18 19 20 21 22 23 24 25 26 27 28
000
ASUS44 KLIX 300711
RWRLIX
NEW ORLEANS REGIONAL WEATHER ROUNDUP
NATIONAL WEATHER SERVICE NEW ORLEANS LA
200 AM CDT FRI SEP 30 2016

NOTE: "FAIR" INDICATES FEW OR NO CLOUDS BELOW 12,000 FEET WITH NO
      SIGNIFICANT WEATHER AND/OR OBSTRUCTIONS TO VISIBILITY.
      SKY/WX - SKY CONDITION AND SIGNIFICANT WEATHER.
      TMP - AIR TEMPERATURE.     DP    - DEWPOINT TEMPERATURE.
      RH  - RELATIVE HUMIDITY.   PRES  - PRESSURE.
      HI  - HEAT INDEX.          WCI   - WIND CHILL INDEX.

*  THESE STATIONS ARE NOT NWS OR FAA STATIONS AND ARE NOT UNDER
   NWS QUALITY CONTROL.

LAZ038-040-048-061>063-065>067-069-300800-
SOUTHEAST LOUISIANA

CITY           SKY/WX    TMP DP  RH WIND       PRES   REMARKS
N.O. AUDUBON   NOT AVBL
N.O. INTL ARPT PTCLDY    74  53  48 NE16      30.08S
N.O. LAKEFRONT CLEAR     74  56  53 NE22      30.08F
N.O. DOWNTOWN*   N/A     73  54  51 N7        30.08F
RESERVE*         N/A     64  58  81 NW3       30.09S
SLIDELL        CLEAR     58  55  90 CALM      30.08S
BATON ROUGE    CLEAR     60  54  80 N5        30.10F
BOOTHVILLE     MOCLDY    77  57  50 N10G18    30.06S
BELLE CHASSE   CLEAR     67  55  65 NE6       30.07F
BOGALUSA*        N/A     57  51  82 N3        30.10F
GALLIANO*      PTSUNNY   73  44  35 N9        30.07S
NEW ROADS*       N/A     56  54  93 MISG      30.11F
GONZALES*        N/A     63  52  66 N5        30.09S
HAMMOND*       CLEAR     55  52  88 N3        30.09F
HOUMA*         CLEAR     62  57  82 N7        30.08S
PORT FOURCHON* CLOUDY    73  57  56 NE15      30.06S

$$

MSZ070-080>082-300800-
SOUTHERN MISSISSIPPI

CITY           SKY/WX    TMP DP  RH WIND       PRES   REMARKS
MCCOMB         CLEAR     61  50  67 N8        30.11F
GULFPORT       CLEAR     62  53  72 N6        30.07S
BILOXI         PTCLDY    63  54  71 N8        30.07S
PASCAGOULA     CLEAR     55  55 100 CALM      30.07S

$$

COASTAL OBSERVATIONS
LAKE AND NEARSHORE STATIONS

STATION/POSITION TIME  TEMP    WIND        PRES    WAVE
                       AIR SEA DIR/SP/G            HT/PER
                 (UTC) (F)     (DEG/KT/KT) (MB)    (FT/S)
PASCAGOULA       0600   64     360/  6/  8 1017.6
WAVELAND YACHT   0600   68 80   10/ 13/ 15 1018.5
GRAND ISLE       0600   76 85   40/ 14/ 21 1018.2
SOUTHWEST PASS   0600           30/ 16/ 18   N/A
NEW CANAL        0600   75 83   30/ 22/ 25 1017.5
SHELL BEACH      0600   74 83   10/ 20/ 22 1018.2

OFFSHORE STATIONS

STATION/POSITION TIME  TEMP    WIND        PRES    WAVE
                       AIR SEA DIR/SP/G            HT/PER
                 (UTC) (F)     (DEG/KT/KT) (MB)    (FT/S)
64 S DAUPHIN ISL 0600   79 85   20/ 16/ 19 1017.0

$$





USA.gov is the U.S. government's official web portal to all federal, state and local government web resources and services.